Location: Unspecified
(0.0000°N, 0.0000°E)
Time: 06:36:06
(UTC+00:00)

Vanguard 2 Rocket - Pass Details

Date: 28 November 2019
Orbit: 554 x 3326 km, 32.9° (Epoch: 11 December)

Event Time Altitude Azimuth Distance (km) Brightness Sun altitude
Exits shadow 04:53:46 - 327° (NNW) 2,737 8.9 -12.6°
Reaches altitude 10° 04:53:54 10° 328° (NNW) 2,696 8.8 -12.5°
Maximum altitude 05:00:12 46° 41° (NE) 1,759 8.5 -11.1°
Drops below altitude 10° 05:11:09 10° 110° (ESE) 4,619 12.2 -8.5°
Sets 05:16:03 0° 115° (ESE) 6,089 13.7 -7.4°
